FW5335 Weather Reports


Display with metric or nautical units.
time (UTC)temp
F
wind
direction
speed
MPH
gust
MPH
rain 1hr
in
rain 24hr
in
rain mn
in
humidity
%
barometer
mb
20260906191519 67 225 1.0 4.0 0.00 0.00 0.00 74 1017.6
20260906190522 68 203 4.0 9.0 0.00 0.00 0.00 73 1017.5
20260906185519 68 203 6.0 11.0 0.00 0.00 0.00 73 1017.3
20260906184520 68 203 6.0 14.0 0.00 0.00 0.00 72 1017.1
20260906183520 69 180 4.0 9.0 0.00 0.00 0.00 72 1017.1
20260906182520 69 203 5.0 9.0 0.00 0.00 0.00 71 1017.1
20260906181520 70 203 4.0 8.0 0.00 0.00 0.00 70 1017.1
20260906180558 70 180 6.0 12.0 0.00 0.00 0.00 69 1017.1
20260906175519 71 180 6.0 12.0 0.00 0.00 0.00 67 1017.0
20260906174539 71 180 5.0 9.0 0.00 0.00 0.00 67 1017.0
20260906173526 72 158 4.0 12.0 0.00 0.00 0.00 65 1017.2
20260906172539 72 158 5.0 8.0 0.00 0.00 0.00 63 1017.4
20260906171520 73 180 5.0 8.0 0.00 0.00 0.00 62 1017.5
20260906170519 74 180 7.0 12.0 0.00 0.00 0.00 59 1017.4
20260906165518 74 180 5.0 11.0 0.00 0.00 0.00 59 1017.3
20260906164520 74 180 6.0 12.0 0.00 0.00 0.00 58 1017.5
20260906163523 75 180 6.0 11.0 0.00 0.00 0.00 57 1017.6
20260906162520 75 158 7.0 12.0 0.00 0.00 0.00 56 1017.5
20260906161520 76 158 7.0 11.0 0.00 0.00 0.00 55 1017.6
20260906160519 77 203 7.0 13.0 0.00 0.00 0.00 52 1017.7
20260906155520 77 180 6.0 12.0 0.00 0.00 0.00 53 1017.8
20260906154520 77 180 5.0 10.0 0.00 0.00 0.00 53 1017.9
20260906153517 78 180 5.0 12.0 0.00 0.00 0.00 50 1018.1
20260906152522 78 180 6.0 15.0 0.00 0.00 0.00 51 1018.1
20260906151519 78 180 8.0 14.0 0.00 0.00 0.00 52 1018.3
20260906150519 78 203 7.0 11.0 0.00 0.00 0.00 50 1018.3
20260906145519 77 203 9.0 16.0 0.00 0.00 0.00 51 1018.4
20260906144517 77 203 7.0 12.0 0.00 0.00 0.00 51 1018.7
20260906143542 77 180 8.0 17.0 0.00 0.00 0.00 50 1018.7
20260906142540 79 203 6.0 11.0 0.00 0.00 0.00 49 1018.9
20260906141521 79 158 7.0 12.0 0.00 0.00 0.00 47 1018.8
20260906140540 78 203 12.0 20.0 0.00 0.00 0.00 44 1018.8
20260906135540 80 180 9.0 17.0 0.00 0.00 0.00 43 1018.8
20260906134539 78 203 10.0 15.0 0.00 0.00 0.00 44 1018.9
20260906133520 79 180 10.0 18.0 0.00 0.00 0.00 44 1019.1
20260906132518 80 180 8.0 16.0 0.00 0.00 0.00 43 1019.3
20260906131519 80 203 6.0 13.0 0.00 0.00 0.00 45 1019.5
20260906130542 80 203 7.0 13.0 0.00 0.00 0.00 44 1019.7
20260906125520 81 180 5.0 13.0 0.00 0.00 0.00 44 1019.8
20260906124517 80 203 8.0 15.0 0.00 0.00 0.00 44 1020.0
20260906123519 79 203 9.0 15.0 0.00 0.00 0.00 47 1020.1
20260906122518 79 203 9.0 17.0 0.00 0.00 0.00 46 1020.2
20260906121521 78 180 10.0 20.0 0.00 0.00 0.00 47 1020.4
20260906120521 78 158 11.0 21.0 0.00 0.00 0.00 46 1020.5
20260906115520 78 203 8.0 15.0 0.00 0.00 0.00 49 1020.4
20260906114518 77 203 8.0 18.0 0.00 0.00 0.00 50 1020.7
20260906113517 76 180 9.0 19.0 0.00 0.00 0.00 50 1020.7
20260906112520 77 203 7.0 12.0 0.00 0.00 0.00 48 1021.0
20260906111520 76 180 8.0 17.0 0.00 0.00 0.00 45 1021.2
20260906110517 77 180 8.0 14.0 0.00 0.00 0.00 44 1021.3
20260906104519 76 180 6.0 12.0 0.00 0.00 0.00 50 1021.5
20260906103517 75 203 5.0 9.0 0.00 0.00 0.00 58 1021.4
20260906102540 73 203 8.0 12.0 0.00 0.00 0.00 61 1021.8
20260906101521 74 158 7.0 15.0 0.00 0.00 0.00 60 1021.9
20260906100519 74 180 7.0 14.0 0.00 0.00 0.00 62 1022.1
20260906095518 73 203 8.0 13.0 0.00 0.00 0.00 62 1022.1
20260906094518 74 203 7.0 16.0 0.00 0.00 0.00 62 1022.0
20260906093518 73 180 8.0 14.0 0.00 0.00 0.00 63 1022.1
20260906092517 72 180 7.0 15.0 0.00 0.00 0.00 64 1022.3
20260906091559 72 203 7.0 15.0 0.00 0.00 0.00 63 1022.3
20260906090558 72 203 5.0 10.0 0.00 0.00 0.00 65 1022.4
20260906085538 72 203 6.0 12.0 0.00 0.00 0.00 66 1022.5
20260906084516 71 135 4.0 8.0 0.00 0.00 0.00 69 1022.6
20260906083516 69 180 5.0 8.0 0.00 0.00 0.00 71 1022.2
20260906082522 69 203 6.0 11.0 0.00 0.00 0.00 73 1022.1
20260906081600 67 180 6.0 12.0 0.00 0.00 0.00 75 1021.8
20260906080520 67 180 6.0 16.0 0.00 0.00 0.00 75 1021.8
20260906075520 66 158 3.0 5.0 0.00 0.00 0.00 78 1022.0
20260906074519 65 135 4.0 9.0 0.00 0.00 0.00 79 1021.8
20260906073520 63 158 5.0 11.0 0.00 0.00 0.00 82 1022.0
20260906072519 61 113 5.0 10.0 0.00 0.00 0.00 85 1021.9
20260906071520 59 90 2.0 4.0 0.00 0.00 0.00 89 1022.0
20260906070519 58 90 1.0 3.0 0.00 0.00 0.00 90 1022.1
20260906065520 57 68 2.0 4.0 0.00 0.00 0.00 91 1021.9
20260906064518 56 90 1.0 3.0 0.00 0.00 0.00 91 1022.1
20260906063518 56 68 1.0 3.0 0.00 0.00 0.00 90 1021.9
20260906062520 56 0.0 2.0 0.00 0.00 0.00 90 1021.9
20260906061521 55 68 1.0 3.0 0.00 0.00 0.00 90 1022.1
20260906060520 55 68 2.0 3.0 0.00 0.00 0.00 89 1022.1
20260906055519 55 68 2.0 4.0 0.00 0.00 0.00 89 1022.3
20260906054520 55 68 1.0 2.0 0.00 0.00 0.00 89 1022.4
20260906053519 56 68 1.0 3.0 0.00 0.00 0.00 89 1022.2
20260906052521 56 68 2.0 4.0 0.00 0.00 0.00 89 1022.3
20260906051518 56 68 3.0 4.0 0.00 0.00 0.00 88 1022.7
20260906050519 56 68 2.0 3.0 0.00 0.00 0.00 88 1022.7
20260906045518 56 68 2.0 3.0 0.00 0.00 0.00 88 1022.7
20260906044521 56 68 3.0 4.0 0.00 0.00 0.00 87 1022.6
20260906043519 56 90 2.0 3.0 0.00 0.00 0.00 87 1023.0
20260906042540 56 90 1.0 2.0 0.00 0.00 0.00 87 1023.0
20260906041539 57 90 2.0 3.0 0.00 0.00 0.00 87 1023.2
20260906040538 57 0.0 1.0 0.00 0.00 0.00 87 1023.4
20260906035519 57 0.0 2.0 0.00 0.00 0.00 87 1023.5
20260906034522 57 0.0 0.0 0.00 0.00 0.00 87 1023.7
20260906033519 57 0.0 1.0 0.00 0.00 0.00 87 1023.8
20260906032521 57 0.0 0.0 0.00 0.00 0.00 87 1024.0
20260906031521 57 90 1.0 2.0 0.00 0.00 0.00 87 1024.3
20260906030520 57 0.0 0.0 0.00 0.00 0.00 87 1024.3
20260906025517 57 0.0 0.0 0.00 0.00 0.00 86 1024.4
20260906024540 57 0.0 0.0 0.00 0.00 0.00 86 1024.4
20260906023518 57 0.0 0.0 0.00 0.00 0.00 86 1024.5
20260906022519 58 0.0 0.0 0.00 0.00 0.00 86 1024.7
20260906021520 58 0.0 0.0 0.00 0.00 0.00 86 1024.7
20260906020523 58 0.0 0.0 0.00 0.00 0.00 85 1024.9
20260906015519 58 0.0 0.0 0.00 0.00 0.00 85 1024.7
20260906014539 58 0.0 2.0 0.00 0.00 0.00 85 1024.9
20260906013518 58 0.0 0.0 0.00 0.00 0.00 84 1025.1
20260906012537 58 0.0 0.0 0.00 0.00 0.00 84 1024.8
20260906011518 58 0.0 0.0 0.00 0.00 0.00 84 1024.9
20260906010519 58 0.0 0.0 0.00 0.00 0.00 84 1024.8
20260906005518 58 0.0 0.0 0.00 0.00 0.00 84 1025.2
20260906004520 58 68 1.0 2.0 0.00 0.00 0.00 84 1025.3
20260906003519 57 0.0 2.0 0.00 0.00 0.00 83 1025.5
20260906002517 57 158 1.0 3.0 0.00 0.00 0.00 83 1025.4
20260906001519 57 158 1.0 2.0 0.00 0.00 0.00 83 1025.6
20260906000540 57 0.0 2.0 0.00 0.00 0.00 83 1025.7
20260905235519 57 158 2.0 3.0 0.00 0.00 0.00 83 1025.9
20260905234542 57 158 1.0 3.0 0.00 0.00 0.00 83 1026.0
20260905233518 57 0.0 0.0 0.00 0.00 0.00 83 1026.0
20260905232518 57 0.0 0.0 0.00 0.00 0.00 83 1026.0
20260905231517 57 0.0 0.0 0.00 0.00 0.00 83 1026.2
20260905230521 57 0.0 0.0 0.00 0.00 0.00 83 1026.2
20260905225520 57 0.0 0.0 0.00 0.00 0.00 82 1026.2
20260905224525 57 0.0 0.0 0.00 0.00 0.00 82 1026.3
20260905223520 57 0.0 0.0 0.00 0.00 0.00 82 1026.0
20260905222519 57 0.0 0.0 0.00 0.00 0.00 81 1026.2
20260905221521 57 0.0 0.0 0.00 0.00 0.00 81 1026.1
20260905220523 57 0.0 0.0 0.00 0.00 0.00 81 1025.9
20260905215541 57 0.0 0.0 0.00 0.00 0.00 81 1026.1
20260905214522 57 0.0 0.0 0.00 0.00 0.00 80 1026.0
20260905213542 57 0.0 0.0 0.00 0.00 0.00 80 1026.1
20260905212517 58 0.0 0.0 0.00 0.00 0.00 80 1026.2
20260905211518 58 0.0 0.0 0.00 0.00 0.00 79 1026.2
20260905210520 58 0.0 0.0 0.00 0.00 0.00 79 1026.3
20260905205518 58 0.0 2.0 0.00 0.00 0.00 78 1026.3
20260905204524 58 113 1.0 2.0 0.00 0.00 0.00 77 1026.2
20260905203517 59 113 1.0 3.0 0.00 0.00 0.00 77 1026.2
20260905202518 59 0.0 1.0 0.00 0.00 0.00 77 1026.0
20260905201519 59 45 3.0 4.0 0.00 0.00 0.00 75 1025.9
20260905200520 60 0.0 0.0 0.00 0.00 0.00 74 1026.1
20260905195520 60 0.0 0.0 0.00 0.00 0.00 73 1026.1
20260905194520 61 45 1.0 2.0 0.00 0.00 0.00 72 1026.2
20260905193522 61 0.0 1.0 0.00 0.00 0.00 71 1026.2
20260905192517 62 0.0 1.0 0.00 0.00 0.00 71 1026.3